Home > Weather > Eirunepé > Past weeks

Flag for Brazil Past Weather in Eirunepé, Amazonas, Brazil — Yesterday and Last 2 Weeks

Now
73 °F

Fog.


Feels Like: 68 °F
Forecast: 70 / 92 °F
Wind: No wind

Location: Leticia / Vasquez Cobo

Current Time: Jul 1, 2016 at 4:50:59 AM

Latest Report: Jul 1, 2016 at 4:00 AM


Visibility: 4 mi

Pressure: 29.89 "Hg

Humidity: 100%

Dew Point: 73 °F

Location of EirunepéLocation

Past Weather in Eirunepé — Graph

°F

Eirunepé Temperature Yesterday

Maximum temperature yesterday: 86 °F (at 3:00 PM)
Minimum temperature yesterday: 72 °F (at 4:00 AM)
Average temperature yesterday: 78 °F

High & Low Weather Summary for the Past Weeks

 TemperatureHumidityPressure
High88 °F (Jun 18, 3:00 PM)100% (Jun 16, 6:00 AM)30.35 "Hg (Jun 16, 6:00 AM)
Low72 °F (Jun 16, 6:00 AM)62% (Jun 26, 4:00 PM)29.83 "Hg (Jun 18, 3:00 PM)
Average78 °F89%29.94 "Hg
* Reported Jun 16 3:00 AM — Jul 1 3:00 AM, Eirunepé, Weather by CustomWeather, © 2016

Note: Actual official high and low records may vary slightly from our data, if they occured in-between our weather recording intervals... More about our weather records

Advertising

Eirunepé Weather History for the Previous 24 Hours

Scroll right to see more
 ConditionsComfort  
Time TempWeatherWind HumidityBarometerVisibility
3:00 AM
Fri, Jul 1
73 °FFog.No wind100%29.88 "Hg1 mi
2:00 AM73 °FFog.No wind100%29.90 "Hg2 mi
1:00 AM73 °FClear.No wind100%29.91 "Hg10 mi
12:00 AM75 °FClear.No wind94%29.95 "Hg10 mi
11:00 PM
Thu, Jun 30
75 °FClear.No wind94%29.96 "Hg10 mi
10:00 PM77 °FClear.No wind94%29.95 "Hg10 mi
9:00 PM77 °FClear.No wind94%29.93 "Hg10 mi
8:00 PM77 °FClear.No wind94%29.91 "Hg10 mi
7:00 PM79 °FClear.No wind94%29.90 "Hg10 mi
6:00 PM82 °FClear.No wind84%29.86 "Hg10 mi
5:00 PM84 °FScattered clouds.No wind74%29.86 "HgN/A
4:00 PM84 °FPartly sunny.No wind74%29.86 "HgN/A
3:00 PM86 °FBroken clouds.No wind75%29.88 "HgN/A
2:00 PM84 °FBroken clouds.No wind79%29.89 "HgN/A
1:00 PM84 °FBroken clouds.No wind74%29.92 "HgN/A
12:00 PM84 °FBroken clouds.5 mph74%29.94 "HgN/A
11:00 AM81 °FBroken clouds.No wind84%29.94 "HgN/A
10:00 AM79 °FPartly sunny.No wind84%29.94 "HgN/A
9:00 AM79 °FPartly sunny.No wind84%29.96 "HgN/A
8:00 AM77 °FPartly sunny.No wind89%29.94 "HgN/A
7:00 AM73 °FPartly sunny.No wind94%29.93 "HgN/A
6:00 AM72 °FFog.No wind100%29.91 "HgN/A
5:00 AM72 °FClear.No wind100%29.90 "Hg10 mi
4:00 AM72 °FClear.No wind100%29.88 "Hg10 mi
Weather by CustomWeather, © 2016

See weather overviewHow to use our weather pages